Middletown Regional/Hook Field (MWO)

 

Airport Diagram
No Airport Diagram Available
Current Weather/Forecast (VFR Conditions)
METAR KMWO 191835Z AUTO 23013G22KT 10SM CLR 19/03 A2988 RMK AO2 T01880027
TAF

Airport Information

All Charts
General
Chart Name View
TAKEOFF MINIMUMS
ALTERNATE MINIMUMS
TAKEOFF MINIMUMS
ALTERNATE MINIMUMS

Arrivals
Chart Name Download
DANEI THREE
DANEI THREE

Approaches
Chart Name Download
RNAV (GPS) RWY 05
RNAV (GPS) RWY 23
LOC RWY 23
NDB RWY 23
NDB-A
RNAV (GPS) RWY 05
RNAV (GPS) RWY 23
LOC RWY 23


Airport Statistics
Departures Arrivals Local
All Collected Stats since June 2016: 2 3 0
2021 Stats: 1 2 0
April Stats: 0 1 0

Inbound Traffic (Arrivals) - 0

No inbound traffic.


Outbound Traffic (Departures) - 0

No outbound traffic.


Local Traffic (Pattern) - 0

No local traffic.